Regional Weather Roundup
Issued by NWS Charleston, WV

Home | Current Version | Previous Version | Text Only | Print | Product List | Glossary On
Versions: 1 2 3 4 5 6 7 8 9 10 11 12 13 14 15 16 17 18 19 20 21 22 23 24 25 26 27
000
ASUS41 KRLX 192010
RWRRLX
West Virginia Regional Weather Roundup
National Weather Service Charleston WV
300 PM EST MON FEB 19 2018

Note: "fair" indicates few or no clouds below 12,000 feet with no
significant weather and/or obstructions to visibility.

WVZ003-192100-
Northern Panhandle of West Virginia

CITY           SKY/WX    TMP DP  RH WIND       PRES   REMARKS
WHEELING         N/A     64  55  72 S15G24    30.10F
$$

WVZ009-192100-
Northwest West Virginia

CITY           SKY/WX    TMP DP  RH WIND       PRES   REMARKS
PARKERSBURG      N/A     70  55  59 SW12G22   30.15S
$$

WVZ006-192100-
Western West Virginia

CITY           SKY/WX    TMP DP  RH WIND       PRES   REMARKS
HUNTINGTON     CLOUDY    75  54  47 SW10G28   30.13S
$$

WVZ015-192100-
West Central West Virginia

CITY           SKY/WX    TMP DP  RH WIND       PRES   REMARKS
CHARLESTON     PTSUNNY   72  56  57 S9        30.15F
$$

WVZ022-031-192100-
North Central West Virginia

CITY           SKY/WX    TMP DP  RH WIND       PRES   REMARKS
CLARKSBURG       N/A     71  56  58 SW17      30.15S
MORGANTOWN       N/A     69  54  58 SW13G24   30.14F
$$

WVZ025-035-042-045-192100-
Southern West Virginia

CITY           SKY/WX    TMP DP  RH WIND       PRES   REMARKS
BECKLEY        CLOUDY    61  50  67 SE7       30.25S
LOGAN          PTSUNNY   72  54  53 SW8G17    30.19S
BLUEFIELD      CLOUDY    66  50  56 W15G23    30.28S
LEWISBURG        N/A     57  49  75 N6        30.29S
$$

WVZ047-192100-
Northern Mountains of West Virginia

CITY           SKY/WX    TMP DP  RH WIND       PRES   REMARKS
ELKINS         CLOUDY    69  53  56 S12       30.20F
$$

WVZ052-192100-
Eastern Panhandle of West Virginia

CITY           SKY/WX    TMP DP  RH WIND       PRES   REMARKS
MARTINSBURG      N/A     57  46  66 SE8       30.25F
PETERSBURG       N/A     63  49  59 S14G21    30.21S
$$




USA.gov is the U.S. government's official web portal to all federal, state and local government web resources and services.